This is the latest recevied weather packets stored in our database for station/object KS5S. If no packets are shown the sender has not sent any weather packets the latest 10 day(s).
| Time | Temp. | Humidity | Pressure | Rain* | Wind** | Luminosity | Snow |
|---|---|---|---|---|---|---|---|
| 1777989416 | 23.33° C | 87% | 1003.3 hPa | 0 mm | - | 208 W/m² | - |
| 1777989113 | 23.33° C | 87% | 1003.7 hPa | 0 mm | - | 182 W/m² | - |
| 1777988808 | 23.33° C | 87% | 1003.4 hPa | 0 mm | - | 186 W/m² | - |
| 1777988506 | 23.33° C | 87% | 1003.4 hPa | 0 mm | - | 204 W/m² | - |
| 1777988203 | 23.33° C | 87% | 1003.5 hPa | 0 mm | - | 174 W/m² | - |
| 1777987899 | 23.33° C | 88% | 1003.7 hPa | 0 mm | - | 189 W/m² | - |
| 1777987595 | 23.33° C | 88% | 1003.4 hPa | 0 mm | - | 161 W/m² | - |
| 1777987293 | 23.33° C | 88% | 1003.3 hPa | 0 mm | - | 179 W/m² | - |
| 1777986990 | 22.78° C | 88% | 1003.5 hPa | 0 mm | - | 157 W/m² | - |
| 1777986687 | 22.78° C | 89% | 1003.1 hPa | 0 mm | - | 166 W/m² | - |
| 1777986386 | 22.78° C | 90% | 1003.3 hPa | 0 mm | - | 135 W/m² | - |
| 1777986084 | 22.22° C | 90% | 1003.5 hPa | 0 mm | - | 127 W/m² | - |
| 1777985780 | 22.22° C | 90% | 1003.7 hPa | 0 mm | - | 113 W/m² | - |
| 1777985477 | 22.22° C | 91% | 1003.5 hPa | 0 mm | - | 94 W/m² | - |
| 1777985173 | 21.67° C | 92% | 1003.3 hPa | 0 mm | - | 81 W/m² | - |
| 1777984870 | 21.67° C | 92% | 1003.3 hPa | 0 mm | - | 89 W/m² | - |
| 1777984566 | 21.67° C | 93% | 1003 hPa | 0 mm | - | 76 W/m² | - |
| 1777984262 | 21.67° C | 93% | 1002.9 hPa | 0 mm | - | 67 W/m² | - |
| 1777983959 | 21.11° C | 94% | 1003 hPa | 0 mm | - | 52 W/m² | - |
| 1777983656 | 21.11° C | 94% | 1002.6 hPa | 0 mm | - | 41 W/m² | - |
| 1777983347 | 21.11° C | 94% | 1002.8 hPa | 0 mm | - | 33 W/m² | - |
| 1777983044 | 21.11° C | 95% | 1002.7 hPa | 0 mm | - | 27 W/m² | - |
| 1777982740 | 21.11° C | 95% | 1002.9 hPa | 0 mm | - | 21 W/m² | - |
| 1777982436 | 20.56° C | 95% | 1002.6 hPa | 0 mm | - | 14 W/m² | - |
| 1777982131 | 20.56° C | 95% | 1002.7 hPa | 0 mm | - | 11 W/m² | - |
* Rain latest hour (hover to see other rain measurements)
** Current wind speed in m/s (hover to see current wind gust speed)